Time,TemperatureF,DewpointF,PressureIn,WindDirection,WindDirectionDegrees,WindSpeedMPH,WindSpeedGustMPH,Humidity,HourlyPrecipIn,Conditions,Clouds,dailyrainin,SoftwareType,DateUTC
2013-05-18 00:00:00,47.7,36.9,30.17,North,-999,0.0,0.0,66,0.00,,,-99.99,WeatherLink 5.5,2013-05-18 04:00:00,
2013-05-18 00:05:00,47.6,36.8,30.18,North,-999,0.0,0.0,66,0.00,,,-99.99,WeatherLink 5.5,2013-05-18 04:05:00,
2013-05-18 00:10:00,47.4,37.0,30.18,North,-999,0.0,0.0,67,0.00,,,-99.99,WeatherLink 5.5,2013-05-18 04:10:00,
2013-05-18 00:15:00,47.4,37.0,30.18,North,-999,0.0,0.0,67,0.00,,,-99.99,WeatherLink 5.5,2013-05-18 04:15:00,
2013-05-18 00:20:00,47.3,37.3,30.18,North,-999,0.0,0.0,68,0.00,,,-99.99,WeatherLink 5.5,2013-05-18 04:20:00,
2013-05-18 00:25:00,47.0,37.0,30.18,North,-999,0.0,0.0,68,0.00,,,-99.99,WeatherLink 5.5,2013-05-18 04:25:00,
2013-05-18 00:30:00,47.0,37.0,30.18,North,-999,0.0,0.0,68,0.00,,,-99.99,WeatherLink 5.5,2013-05-18 04:30:00,
2013-05-18 00:35:00,46.4,37.1,30.18,North,-999,0.0,0.0,70,0.00,,,-99.99,WeatherLink 5.5,2013-05-18 04:35:00,
2013-05-18 00:40:00,46.1,37.2,30.18,North,-999,0.0,0.0,71,0.00,,,-99.99,WeatherLink 5.5,2013-05-18 04:40:00,
2013-05-18 00:45:00,46.1,37.2,30.18,North,-999,0.0,0.0,71,0.00,,,-99.99,WeatherLink 5.5,2013-05-18 04:45:00,
2013-05-18 00:50:00,45.7,37.2,30.18,North,-999,0.0,0.0,72,0.00,,,-99.99,WeatherLink 5.5,2013-05-18 04:50:00,
2013-05-18 00:55:00,45.7,37.5,30.18,North,-999,0.0,0.0,73,0.00,,,-99.99,WeatherLink 5.5,2013-05-18 04:55:00,
2013-05-18 01:00:00,45.7,37.5,30.18,North,-999,0.0,0.0,73,0.00,,,-99.99,WeatherLink 5.5,2013-05-18 05:00:00,
2013-05-18 01:05:00,45.7,37.5,30.18,North,-999,0.0,0.0,73,0.00,,,-99.99,WeatherLink 5.5,2013-05-18 05:05:00,
2013-05-18 01:10:00,45.7,37.5,30.18,North,-999,0.0,0.0,73,0.00,,,-99.99,WeatherLink 5.5,2013-05-18 05:10:00,
2013-05-18 01:15:00,45.7,37.5,30.18,North,-999,0.0,0.0,73,0.00,,,-99.99,WeatherLink 5.5,2013-05-18 05:15:00,
2013-05-18 01:20:00,45.5,37.3,30.18,North,-999,0.0,0.0,73,0.00,,,-99.99,WeatherLink 5.5,2013-05-18 05:20:00,
2013-05-18 01:25:00,45.5,37.3,30.18,North,-999,0.0,0.0,73,0.00,,,-99.99,WeatherLink 5.5,2013-05-18 05:25:00,
2013-05-18 01:30:00,45.5,37.3,30.18,North,-999,0.0,0.0,73,0.00,,,-99.99,WeatherLink 5.5,2013-05-18 05:30:00,
2013-05-18 01:35:00,45.2,37.1,30.18,North,-999,0.0,0.0,73,0.00,,,-99.99,WeatherLink 5.5,2013-05-18 05:35:00,
2013-05-18 01:40:00,45.1,37.3,30.18,North,-999,0.0,0.0,74,0.00,,,-99.99,WeatherLink 5.5,2013-05-18 05:40:00,
2013-05-18 01:45:00,45.1,37.3,30.18,North,-999,0.0,0.0,74,0.00,,,-99.99,WeatherLink 5.5,2013-05-18 05:45:00,
2013-05-18 01:50:00,44.8,37.0,30.18,North,-999,0.0,0.0,74,0.00,,,-99.99,WeatherLink 5.5,2013-05-18 05:50:00,
2013-05-18 01:55:00,44.6,36.8,30.18,North,-999,0.0,0.0,74,0.00,,,-99.99,WeatherLink 5.5,2013-05-18 05:55:00,
2013-05-18 02:00:00,44.6,36.8,30.18,North,-999,0.0,0.0,74,0.00,,,-99.99,WeatherLink 5.5,2013-05-18 06:00:00,
2013-05-18 02:05:00,44.0,36.2,30.18,North,-999,0.0,0.0,74,0.00,,,-99.99,WeatherLink 5.5,2013-05-18 06:05:00,
2013-05-18 02:10:00,43.9,36.5,30.18,North,-999,0.0,0.0,75,0.00,,,-99.99,WeatherLink 5.5,2013-05-18 06:10:00,
2013-05-18 02:15:00,43.9,36.5,30.18,North,-999,0.0,0.0,75,0.00,,,-99.99,WeatherLink 5.5,2013-05-18 06:15:00,
2013-05-18 02:20:00,43.6,36.5,30.18,North,-999,0.0,0.0,76,0.00,,,-99.99,WeatherLink 5.5,2013-05-18 06:20:00,
2013-05-18 02:25:00,43.3,36.2,30.18,North,-999,0.0,0.0,76,0.00,,,-99.99,WeatherLink 5.5,2013-05-18 06:25:00,
2013-05-18 02:30:00,43.3,36.2,30.18,North,-999,0.0,0.0,76,0.00,,,-99.99,WeatherLink 5.5,2013-05-18 06:30:00,
2013-05-18 02:35:00,43.0,36.3,30.18,North,-999,0.0,0.0,77,0.00,,,-99.99,WeatherLink 5.5,2013-05-18 06:35:00,
2013-05-18 02:40:00,42.9,36.2,30.18,North,-999,0.0,0.0,77,0.00,,,-99.99,WeatherLink 5.5,2013-05-18 06:40:00,
2013-05-18 02:45:00,42.9,36.2,30.18,North,-999,0.0,0.0,77,0.00,,,-99.99,WeatherLink 5.5,2013-05-18 06:45:00,
2013-05-18 02:50:00,42.8,36.4,30.18,North,-999,0.0,0.0,78,0.00,,,-99.99,WeatherLink 5.5,2013-05-18 06:50:00,
2013-05-18 02:55:00,42.8,36.4,30.18,NE,45,0.0,1.0,78,0.00,,,-99.99,WeatherLink 5.5,2013-05-18 06:55:00,
2013-05-18 03:00:00,42.8,36.4,30.18,NE,45,0.0,1.0,78,0.00,,,-99.99,WeatherLink 5.5,2013-05-18 07:00:00,
2013-05-18 03:05:00,42.5,36.1,30.18,North,-999,0.0,0.0,78,0.00,,,-99.99,WeatherLink 5.5,2013-05-18 07:05:00,
2013-05-18 03:10:00,42.2,35.8,30.18,North,-999,0.0,0.0,78,0.00,,,-99.99,WeatherLink 5.5,2013-05-18 07:10:00,
2013-05-18 03:15:00,42.2,35.8,30.18,North,-999,0.0,0.0,78,0.00,,,-99.99,WeatherLink 5.5,2013-05-18 07:15:00,
2013-05-18 03:20:00,42.0,35.6,30.19,North,-999,0.0,0.0,78,0.00,,,-99.99,WeatherLink 5.5,2013-05-18 07:20:00,
2013-05-18 03:25:00,42.0,36.0,30.19,North,-999,0.0,0.0,79,0.00,,,-99.99,WeatherLink 5.5,2013-05-18 07:25:00,
2013-05-18 03:30:00,42.0,36.0,30.19,North,-999,0.0,0.0,79,0.00,,,-99.99,WeatherLink 5.5,2013-05-18 07:30:00,
2013-05-18 03:35:00,42.0,36.0,30.19,North,-999,0.0,0.0,79,0.00,,,-99.99,WeatherLink 5.5,2013-05-18 07:35:00,
2013-05-18 03:40:00,41.9,35.9,30.19,North,-999,0.0,0.0,79,0.00,,,-99.99,WeatherLink 5.5,2013-05-18 07:40:00,
2013-05-18 03:45:00,41.9,35.9,30.19,North,-999,0.0,0.0,79,0.00,,,-99.99,WeatherLink 5.5,2013-05-18 07:45:00,
2013-05-18 03:50:00,41.6,35.6,30.19,North,-999,0.0,0.0,79,0.00,,,-99.99,WeatherLink 5.5,2013-05-18 07:50:00,
2013-05-18 03:55:00,41.6,35.6,30.19,North,-999,0.0,0.0,79,0.00,,,-99.99,WeatherLink 5.5,2013-05-18 07:55:00,
2013-05-18 04:00:00,41.6,35.6,30.19,North,-999,0.0,0.0,79,0.00,,,-99.99,WeatherLink 5.5,2013-05-18 08:00:00,
2013-05-18 04:05:00,41.5,35.5,30.20,North,-999,0.0,0.0,79,0.00,,,-99.99,WeatherLink 5.5,2013-05-18 08:05:00,
2013-05-18 04:10:00,41.3,35.3,30.20,North,-999,0.0,0.0,79,0.00,,,-99.99,WeatherLink 5.5,2013-05-18 08:10:00,
2013-05-18 04:15:00,41.3,35.3,30.20,North,-999,0.0,0.0,79,0.00,,,-99.99,WeatherLink 5.5,2013-05-18 08:15:00,
2013-05-18 04:20:00,41.0,35.0,30.21,North,-999,0.0,0.0,79,0.00,,,-99.99,WeatherLink 5.5,2013-05-18 08:20:00,
2013-05-18 04:25:00,40.9,34.9,30.21,North,-999,0.0,0.0,79,0.00,,,-99.99,WeatherLink 5.5,2013-05-18 08:25:00,
2013-05-18 04:30:00,40.9,34.9,30.21,North,-999,0.0,0.0,79,0.00,,,-99.99,WeatherLink 5.5,2013-05-18 08:30:00,
2013-05-18 04:35:00,40.8,35.1,30.21,North,-999,0.0,0.0,80,0.00,,,-99.99,WeatherLink 5.5,2013-05-18 08:35:00,
2013-05-18 04:40:00,40.6,34.9,30.21,North,-999,0.0,0.0,80,0.00,,,-99.99,WeatherLink 5.5,2013-05-18 08:40:00,
2013-05-18 04:45:00,40.6,34.9,30.21,North,-999,0.0,0.0,80,0.00,,,-99.99,WeatherLink 5.5,2013-05-18 08:45:00,
2013-05-18 04:50:00,40.5,34.8,30.21,North,-999,0.0,0.0,80,0.00,,,-99.99,WeatherLink 5.5,2013-05-18 08:50:00,
2013-05-18 04:55:00,40.3,34.6,30.21,North,-999,0.0,0.0,80,0.00,,,-99.99,WeatherLink 5.5,2013-05-18 08:55:00,
2013-05-18 05:00:00,40.3,34.6,30.21,North,-999,0.0,0.0,80,0.00,,,-99.99,WeatherLink 5.5,2013-05-18 09:00:00,
2013-05-18 05:05:00,40.0,34.6,30.22,North,-999,0.0,0.0,81,0.00,,,-99.99,WeatherLink 5.5,2013-05-18 09:05:00,
2013-05-18 05:10:00,40.0,34.6,30.22,North,-999,0.0,0.0,81,0.00,,,-99.99,WeatherLink 5.5,2013-05-18 09:10:00,
2013-05-18 05:15:00,40.0,34.6,30.22,North,-999,0.0,0.0,81,0.00,,,-99.99,WeatherLink 5.5,2013-05-18 09:15:00,
2013-05-18 05:20:00,39.9,34.5,30.22,North,-999,0.0,0.0,81,0.00,,,-99.99,WeatherLink 5.5,2013-05-18 09:20:00,
2013-05-18 05:25:00,39.9,34.5,30.22,North,-999,0.0,0.0,81,0.00,,,-99.99,WeatherLink 5.5,2013-05-18 09:25:00,
2013-05-18 05:30:00,39.9,34.5,30.22,North,-999,0.0,0.0,81,0.00,,,-99.99,WeatherLink 5.5,2013-05-18 09:30:00,
2013-05-18 05:35:00,39.8,34.4,30.22,North,-999,0.0,0.0,81,0.00,,,-99.99,WeatherLink 5.5,2013-05-18 09:35:00,
2013-05-18 05:40:00,39.6,34.2,30.22,North,-999,0.0,0.0,81,0.00,,,-99.99,WeatherLink 5.5,2013-05-18 09:40:00,
2013-05-18 05:45:00,39.6,34.2,30.22,North,-999,0.0,0.0,81,0.00,,,-99.99,WeatherLink 5.5,2013-05-18 09:45:00,
2013-05-18 05:50:00,39.6,34.2,30.23,North,-999,0.0,0.0,81,0.00,,,-99.99,WeatherLink 5.5,2013-05-18 09:50:00,
2013-05-18 05:55:00,39.6,34.2,30.23,North,-999,0.0,0.0,81,0.00,,,-99.99,WeatherLink 5.5,2013-05-18 09:55:00,
2013-05-18 06:00:00,39.6,34.2,30.23,North,-999,0.0,0.0,81,0.00,,,-99.99,WeatherLink 5.5,2013-05-18 10:00:00,
2013-05-18 06:05:00,39.8,34.8,30.24,North,-999,0.0,0.0,82,0.00,,,-99.99,WeatherLink 5.5,2013-05-18 10:05:00,
2013-05-18 06:10:00,39.9,34.9,30.24,North,-999,0.0,0.0,82,0.00,,,-99.99,WeatherLink 5.5,2013-05-18 10:10:00,
2013-05-18 06:15:00,39.9,34.9,30.24,North,-999,0.0,0.0,82,0.00,,,-99.99,WeatherLink 5.5,2013-05-18 10:15:00,
2013-05-18 06:20:00,40.3,35.2,30.24,North,-999,0.0,0.0,82,0.00,,,-99.99,WeatherLink 5.5,2013-05-18 10:20:00,
2013-05-18 06:25:00,40.6,35.5,30.24,North,-999,0.0,0.0,82,0.00,,,-99.99,WeatherLink 5.5,2013-05-18 10:25:00,
2013-05-18 06:30:00,40.6,35.5,30.24,North,-999,0.0,0.0,82,0.00,,,-99.99,WeatherLink 5.5,2013-05-18 10:30:00,
2013-05-18 06:35:00,41.2,36.1,30.25,North,-999,0.0,0.0,82,0.00,,,-99.99,WeatherLink 5.5,2013-05-18 10:35:00,
2013-05-18 06:40:00,41.6,36.5,30.25,NE,45,0.0,1.0,82,0.00,,,-99.99,WeatherLink 5.5,2013-05-18 10:40:00,
2013-05-18 06:45:00,41.6,36.5,30.25,NE,45,0.0,1.0,82,0.00,,,-99.99,WeatherLink 5.5,2013-05-18 10:45:00,
2013-05-18 06:50:00,42.6,37.5,30.25,North,-999,0.0,0.0,82,0.00,,,-99.99,WeatherLink 5.5,2013-05-18 10:50:00,
2013-05-18 06:55:00,43.5,37.7,30.25,North,-999,0.0,0.0,80,0.00,,,-99.99,WeatherLink 5.5,2013-05-18 10:55:00,
2013-05-18 07:00:00,43.5,37.7,30.25,North,-999,0.0,0.0,80,0.00,,,-99.99,WeatherLink 5.5,2013-05-18 11:00:00,
2013-05-18 07:05:00,44.9,38.5,30.25,North,-999,0.0,0.0,78,0.00,,,-99.99,WeatherLink 5.5,2013-05-18 11:05:00,
2013-05-18 07:10:00,45.8,38.7,30.25,North,-999,0.0,0.0,76,0.00,,,-99.99,WeatherLink 5.5,2013-05-18 11:10:00,
2013-05-18 07:15:00,45.8,38.7,30.25,North,-999,0.0,0.0,76,0.00,,,-99.99,WeatherLink 5.5,2013-05-18 11:15:00,
2013-05-18 07:20:00,48.5,39.2,30.25,North,-999,0.0,0.0,70,0.00,,,-99.99,WeatherLink 5.5,2013-05-18 11:20:00,
2013-05-18 07:25:00,49.8,39.3,30.25,North,-999,0.0,0.0,67,0.00,,,-99.99,WeatherLink 5.5,2013-05-18 11:25:00,
2013-05-18 07:30:00,49.8,39.3,30.25,North,-999,0.0,0.0,67,0.00,,,-99.99,WeatherLink 5.5,2013-05-18 11:30:00,
2013-05-18 07:35:00,51.9,37.6,30.25,North,-999,0.0,0.0,58,0.00,,,-99.99,WeatherLink 5.5,2013-05-18 11:35:00,
2013-05-18 07:40:00,52.0,38.1,30.25,North,-999,0.0,0.0,59,0.00,,,-99.99,WeatherLink 5.5,2013-05-18 11:40:00,
2013-05-18 07:45:00,52.0,38.1,30.25,North,-999,0.0,0.0,59,0.00,,,-99.99,WeatherLink 5.5,2013-05-18 11:45:00,
2013-05-18 07:50:00,53.3,38.9,30.26,North,-999,0.0,0.0,58,0.00,,,-99.99,WeatherLink 5.5,2013-05-18 11:50:00,
2013-05-18 07:55:00,55.0,39.1,30.26,North,-999,0.0,0.0,55,0.00,,,-99.99,WeatherLink 5.5,2013-05-18 11:55:00,
2013-05-18 08:00:00,55.0,39.1,30.26,North,-999,0.0,0.0,55,0.00,,,-99.99,WeatherLink 5.5,2013-05-18 12:00:00,
2013-05-18 08:05:00,56.9,40.4,30.26,North,-999,0.0,0.0,54,0.00,,,-99.99,WeatherLink 5.5,2013-05-18 12:05:00,
2013-05-18 08:10:00,57.7,38.7,30.26,North,-999,0.0,0.0,49,0.00,,,-99.99,WeatherLink 5.5,2013-05-18 12:10:00,
2013-05-18 08:15:00,57.7,38.7,30.26,North,-999,0.0,0.0,49,0.00,,,-99.99,WeatherLink 5.5,2013-05-18 12:15:00,
2013-05-18 08:20:00,58.4,38.8,30.26,North,-999,0.0,0.0,48,0.00,,,-99.99,WeatherLink 5.5,2013-05-18 12:20:00,
2013-05-18 08:25:00,58.4,37.7,30.26,North,-999,0.0,0.0,46,0.00,,,-99.99,WeatherLink 5.5,2013-05-18 12:25:00,
2013-05-18 08:30:00,58.4,37.7,30.26,North,-999,0.0,0.0,46,0.00,,,-99.99,WeatherLink 5.5,2013-05-18 12:30:00,
2013-05-18 08:35:00,58.6,37.3,30.26,North,-999,0.0,0.0,45,0.00,,,-99.99,WeatherLink 5.5,2013-05-18 12:35:00,
2013-05-18 08:40:00,59.3,37.4,30.26,North,-999,0.0,0.0,44,0.00,,,-99.99,WeatherLink 5.5,2013-05-18 12:40:00,
2013-05-18 08:45:00,59.3,37.4,30.26,North,-999,0.0,0.0,44,0.00,,,-99.99,WeatherLink 5.5,2013-05-18 12:45:00,
2013-05-18 08:50:00,60.9,36.4,30.27,North,-999,0.0,0.0,40,0.00,,,-99.99,WeatherLink 5.5,2013-05-18 12:50:00,
2013-05-18 08:55:00,61.7,36.5,30.27,North,-999,0.0,0.0,39,0.00,,,-99.99,WeatherLink 5.5,2013-05-18 12:55:00,
2013-05-18 09:00:00,61.7,36.5,30.27,North,-999,0.0,0.0,39,0.00,,,-99.99,WeatherLink 5.5,2013-05-18 13:00:00,
2013-05-18 09:05:00,63.1,35.0,30.27,North,-999,0.0,0.0,35,0.00,,,-99.99,WeatherLink 5.5,2013-05-18 13:05:00,
2013-05-18 09:10:00,63.1,33.5,30.27,West,270,0.0,1.0,33,0.00,,,-99.99,WeatherLink 5.5,2013-05-18 13:10:00,
2013-05-18 09:15:00,63.1,33.5,30.27,West,270,0.0,1.0,33,0.00,,,-99.99,WeatherLink 5.5,2013-05-18 13:15:00,
2013-05-18 09:20:00,63.7,33.3,30.27,West,270,0.0,1.0,32,0.00,,,-99.99,WeatherLink 5.5,2013-05-18 13:20:00,
2013-05-18 09:25:00,63.9,33.4,30.27,West,270,0.0,1.0,32,0.00,,,-99.99,WeatherLink 5.5,2013-05-18 13:25:00,
2013-05-18 09:30:00,63.9,33.4,30.27,West,270,0.0,1.0,32,0.00,,,-99.99,WeatherLink 5.5,2013-05-18 13:30:00,
2013-05-18 09:35:00,64.5,33.2,30.26,NNW,337,0.0,1.0,31,0.00,,,-99.99,WeatherLink 5.5,2013-05-18 13:35:00,
2013-05-18 09:40:00,65.0,33.6,30.26,North,0,0.0,1.0,31,0.00,,,-99.99,WeatherLink 5.5,2013-05-18 13:40:00,
2013-05-18 09:45:00,65.0,33.6,30.26,North,0,0.0,1.0,31,0.00,,,-99.99,WeatherLink 5.5,2013-05-18 13:45:00,
2013-05-18 09:50:00,66.0,33.7,30.26,SE,135,1.0,4.0,30,0.00,,,-99.99,WeatherLink 5.5,2013-05-18 13:50:00,
2013-05-18 09:55:00,66.5,34.1,30.26,North,-999,0.0,0.0,30,0.00,,,-99.99,WeatherLink 5.5,2013-05-18 13:55:00,
2013-05-18 10:00:00,66.5,34.1,30.26,North,-999,0.0,0.0,30,0.00,,,-99.99,WeatherLink 5.5,2013-05-18 14:00:00,
2013-05-18 10:05:00,68.0,34.5,30.26,SE,135,0.0,1.0,29,0.00,,,-99.99,WeatherLink 5.5,2013-05-18 14:05:00,
2013-05-18 10:10:00,67.8,30.7,30.26,West,270,1.0,6.0,25,0.00,,,-99.99,WeatherLink 5.5,2013-05-18 14:10:00,
2013-05-18 10:15:00,67.8,30.7,30.26,West,270,1.0,6.0,25,0.00,,,-99.99,WeatherLink 5.5,2013-05-18 14:15:00,
2013-05-18 10:20:00,67.5,31.4,30.25,SE,135,1.0,8.0,26,0.00,,,-99.99,WeatherLink 5.5,2013-05-18 14:20:00,
2013-05-18 10:25:00,68.5,30.3,30.25,SE,135,0.0,1.0,24,0.00,,,-99.99,WeatherLink 5.5,2013-05-18 14:25:00,
2013-05-18 10:30:00,68.5,30.3,30.25,SE,135,0.0,1.0,24,0.00,,,-99.99,WeatherLink 5.5,2013-05-18 14:30:00,
2013-05-18 10:35:00,69.1,33.7,30.25,NE,45,0.0,1.0,27,0.00,,,-99.99,WeatherLink 5.5,2013-05-18 14:35:00,
2013-05-18 10:40:00,69.8,32.4,30.25,WNW,292,0.0,6.0,25,0.00,,,-99.99,WeatherLink 5.5,2013-05-18 14:40:00,
2013-05-18 10:45:00,69.8,32.4,30.25,WNW,292,0.0,6.0,25,0.00,,,-99.99,WeatherLink 5.5,2013-05-18 14:45:00,
2013-05-18 10:50:00,70.0,28.2,30.25,ESE,112,0.0,6.0,21,0.00,,,-99.99,WeatherLink 5.5,2013-05-18 14:50:00,
2013-05-18 10:55:00,68.8,29.5,30.25,ESE,112,0.0,4.0,23,0.00,,,-99.99,WeatherLink 5.5,2013-05-18 14:55:00,
2013-05-18 11:00:00,68.8,29.5,30.25,ESE,112,0.0,4.0,23,0.00,,,-99.99,WeatherLink 5.5,2013-05-18 15:00:00,
2013-05-18 11:05:00,68.6,30.3,30.25,SSE,157,0.0,1.0,24,0.00,,,-99.99,WeatherLink 5.5,2013-05-18 15:05:00,
2013-05-18 11:10:00,68.1,29.9,30.25,SSE,157,0.0,1.0,24,0.00,,,-99.99,WeatherLink 5.5,2013-05-18 15:10:00,
2013-05-18 11:15:00,68.1,29.9,30.25,SSE,157,0.0,1.0,24,0.00,,,-99.99,WeatherLink 5.5,2013-05-18 15:15:00,
2013-05-18 11:20:00,69.8,29.2,30.25,ESE,112,1.0,7.0,22,0.00,,,-99.99,WeatherLink 5.5,2013-05-18 15:20:00,
2013-05-18 11:25:00,69.8,30.3,30.25,ESE,112,2.0,8.0,23,0.00,,,-99.99,WeatherLink 5.5,2013-05-18 15:25:00,
2013-05-18 11:30:00,69.8,30.3,30.25,ESE,112,2.0,8.0,23,0.00,,,-99.99,WeatherLink 5.5,2013-05-18 15:30:00,
2013-05-18 11:35:00,70.0,27.0,30.24,NW,315,0.0,6.0,20,0.00,,,-99.99,WeatherLink 5.5,2013-05-18 15:35:00,
2013-05-18 11:40:00,69.3,26.5,30.24,ENE,67,0.0,6.0,20,0.00,,,-99.99,WeatherLink 5.5,2013-05-18 15:40:00,
2013-05-18 11:45:00,69.3,26.5,30.24,ENE,67,0.0,6.0,20,0.00,,,-99.99,WeatherLink 5.5,2013-05-18 15:45:00,
2013-05-18 11:50:00,69.6,26.7,30.24,ENE,67,0.0,1.0,20,0.00,,,-99.99,WeatherLink 5.5,2013-05-18 15:50:00,
2013-05-18 11:55:00,69.6,26.7,30.24,South,180,1.0,6.0,20,0.00,,,-99.99,WeatherLink 5.5,2013-05-18 15:55:00,
2013-05-18 12:00:00,69.6,26.7,30.24,South,180,1.0,6.0,20,0.00,,,-99.99,WeatherLink 5.5,2013-05-18 16:00:00,
2013-05-18 12:05:00,69.8,25.6,30.23,WSW,247,2.0,7.0,19,0.00,,,-99.99,WeatherLink 5.5,2013-05-18 16:05:00,
2013-05-18 12:10:00,70.0,24.5,30.23,SSW,202,1.0,6.0,18,0.00,,,-99.99,WeatherLink 5.5,2013-05-18 16:10:00,
2013-05-18 12:15:00,70.0,24.5,30.23,SSW,202,1.0,6.0,18,0.00,,,-99.99,WeatherLink 5.5,2013-05-18 16:15:00,
2013-05-18 12:20:00,70.1,24.6,30.23,West,270,3.0,7.0,18,0.00,,,-99.99,WeatherLink 5.5,2013-05-18 16:20:00,
2013-05-18 12:25:00,69.6,24.2,30.23,West,270,1.0,6.0,18,0.00,,,-99.99,WeatherLink 5.5,2013-05-18 16:25:00,
2013-05-18 12:30:00,69.6,24.2,30.23,West,270,1.0,6.0,18,0.00,,,-99.99,WeatherLink 5.5,2013-05-18 16:30:00,
2013-05-18 12:35:00,69.6,25.5,30.23,West,270,0.0,1.0,19,0.00,,,-99.99,WeatherLink 5.5,2013-05-18 16:35:00,
2013-05-18 12:40:00,69.8,24.3,30.23,SSE,157,1.0,6.0,18,0.00,,,-99.99,WeatherLink 5.5,2013-05-18 16:40:00,
2013-05-18 12:45:00,69.8,24.3,30.23,SSE,157,1.0,6.0,18,0.00,,,-99.99,WeatherLink 5.5,2013-05-18 16:45:00,
2013-05-18 12:50:00,70.8,27.7,30.22,SE,135,0.0,1.0,20,0.00,,,-99.99,WeatherLink 5.5,2013-05-18 16:50:00,
2013-05-18 12:55:00,71.0,22.5,30.22,East,90,1.0,6.0,16,0.00,,,-99.99,WeatherLink 5.5,2013-05-18 16:55:00,
2013-05-18 13:00:00,71.0,22.5,30.22,East,90,1.0,6.0,16,0.00,,,-99.99,WeatherLink 5.5,2013-05-18 17:00:00,
2013-05-18 13:05:00,70.0,23.1,30.22,East,90,4.0,13.0,17,0.00,,,-99.99,WeatherLink 5.5,2013-05-18 17:05:00,
2013-05-18 13:10:00,69.8,24.3,30.22,WSW,247,2.0,7.0,18,0.00,,,-99.99,WeatherLink 5.5,2013-05-18 17:10:00,
2013-05-18 13:15:00,69.8,24.3,30.22,WSW,247,2.0,7.0,18,0.00,,,-99.99,WeatherLink 5.5,2013-05-18 17:15:00,
2013-05-18 13:20:00,70.1,24.6,30.22,SE,135,0.0,1.0,18,0.00,,,-99.99,WeatherLink 5.5,2013-05-18 17:20:00,
2013-05-18 13:25:00,70.6,26.3,30.22,SW,225,0.0,1.0,19,0.00,,,-99.99,WeatherLink 5.5,2013-05-18 17:25:00,
2013-05-18 13:30:00,70.6,26.3,30.22,SW,225,0.0,1.0,19,0.00,,,-99.99,WeatherLink 5.5,2013-05-18 17:30:00,
2013-05-18 13:35:00,71.0,22.5,30.21,SW,225,3.0,9.0,16,0.00,,,-99.99,WeatherLink 5.5,2013-05-18 17:35:00,
2013-05-18 13:40:00,70.6,23.6,30.21,SW,225,2.0,8.0,17,0.00,,,-99.99,WeatherLink 5.5,2013-05-18 17:40:00,
2013-05-18 13:45:00,70.6,23.6,30.21,SW,225,2.0,8.0,17,0.00,,,-99.99,WeatherLink 5.5,2013-05-18 17:45:00,
2013-05-18 13:50:00,70.5,22.1,30.21,SE,135,1.0,6.0,16,0.00,,,-99.99,WeatherLink 5.5,2013-05-18 17:50:00,
2013-05-18 13:55:00,70.8,22.3,30.21,SE,135,0.0,1.0,16,0.00,,,-99.99,WeatherLink 5.5,2013-05-18 17:55:00,
2013-05-18 14:00:00,70.8,22.3,30.21,SE,135,0.0,1.0,16,0.00,,,-99.99,WeatherLink 5.5,2013-05-18 18:00:00,
2013-05-18 14:05:00,71.2,22.7,30.20,South,180,0.0,4.0,16,0.00,,,-99.99,WeatherLink 5.5,2013-05-18 18:05:00,
2013-05-18 14:10:00,71.2,21.1,30.20,WNW,292,1.0,8.0,15,0.00,,,-99.99,WeatherLink 5.5,2013-05-18 18:10:00,
2013-05-18 14:15:00,71.2,21.1,30.20,WNW,292,1.0,8.0,15,0.00,,,-99.99,WeatherLink 5.5,2013-05-18 18:15:00,
2013-05-18 14:20:00,71.7,23.1,30.20,WSW,247,0.0,1.0,16,0.00,,,-99.99,WeatherLink 5.5,2013-05-18 18:20:00,
2013-05-18 14:25:00,71.5,19.8,30.20,SSW,202,1.0,7.0,14,0.00,,,-99.99,WeatherLink 5.5,2013-05-18 18:25:00,
2013-05-18 14:30:00,71.5,19.8,30.20,SSW,202,1.0,7.0,14,0.00,,,-99.99,WeatherLink 5.5,2013-05-18 18:30:00,
2013-05-18 14:35:00,72.0,20.1,30.20,North,0,0.0,2.0,14,0.00,,,-99.99,WeatherLink 5.5,2013-05-18 18:35:00,
2013-05-18 14:40:00,72.0,21.8,30.20,SSE,157,0.0,6.0,15,0.00,,,-99.99,WeatherLink 5.5,2013-05-18 18:40:00,
2013-05-18 14:45:00,72.0,21.8,30.20,SSE,157,0.0,6.0,15,0.00,,,-99.99,WeatherLink 5.5,2013-05-18 18:45:00,
2013-05-18 14:50:00,71.5,19.8,30.19,ESE,112,0.0,4.0,14,0.00,,,-99.99,WeatherLink 5.5,2013-05-18 18:50:00,
2013-05-18 14:55:00,71.3,24.2,30.19,ESE,112,0.0,1.0,17,0.00,,,-99.99,WeatherLink 5.5,2013-05-18 18:55:00,
2013-05-18 15:00:00,71.3,24.2,30.19,ESE,112,0.0,1.0,17,0.00,,,-99.99,WeatherLink 5.5,2013-05-18 19:00:00,
2013-05-18 15:05:00,70.8,23.8,30.19,East,90,0.0,4.0,17,0.00,,,-99.99,WeatherLink 5.5,2013-05-18 19:05:00,
2013-05-18 15:10:00,71.0,24.0,30.19,North,-999,0.0,0.0,17,0.00,,,-99.99,WeatherLink 5.5,2013-05-18 19:10:00,
2013-05-18 15:15:00,71.0,24.0,30.19,North,-999,0.0,0.0,17,0.00,,,-99.99,WeatherLink 5.5,2013-05-18 19:15:00,
2013-05-18 15:20:00,71.3,22.7,30.18,North,-999,0.0,0.0,16,0.00,,,-99.99,WeatherLink 5.5,2013-05-18 19:20:00,
2013-05-18 15:25:00,71.7,24.5,30.18,North,-999,0.0,0.0,17,0.00,,,-99.99,WeatherLink 5.5,2013-05-18 19:25:00,
2013-05-18 15:30:00,71.7,24.5,30.18,North,-999,0.0,0.0,17,0.00,,,-99.99,WeatherLink 5.5,2013-05-18 19:30:00,
2013-05-18 15:35:00,73.4,21.3,30.18,ENE,67,0.0,1.0,14,0.00,,,-99.99,WeatherLink 5.5,2013-05-18 19:35:00,
2013-05-18 15:40:00,73.7,21.5,30.18,North,-999,0.0,0.0,14,0.00,,,-99.99,WeatherLink 5.5,2013-05-18 19:40:00,
2013-05-18 15:45:00,73.7,21.5,30.18,North,-999,0.0,0.0,14,0.00,,,-99.99,WeatherLink 5.5,2013-05-18 19:45:00,
2013-05-18 15:50:00,72.9,22.5,30.18,North,-999,0.0,0.0,15,0.00,,,-99.99,WeatherLink 5.5,2013-05-18 19:50:00,
2013-05-18 15:55:00,72.9,24.0,30.18,North,-999,0.0,0.0,16,0.00,,,-99.99,WeatherLink 5.5,2013-05-18 19:55:00,
2013-05-18 16:00:00,72.9,24.0,30.18,North,-999,0.0,0.0,16,0.00,,,-99.99,WeatherLink 5.5,2013-05-18 20:00:00,
2013-05-18 16:05:00,72.5,20.5,30.18,WSW,247,0.0,4.0,14,0.00,,,-99.99,WeatherLink 5.5,2013-05-18 20:05:00,
2013-05-18 16:10:00,72.4,23.6,30.18,North,-999,0.0,0.0,16,0.00,,,-99.99,WeatherLink 5.5,2013-05-18 20:10:00,
2013-05-18 16:15:00,72.4,23.6,30.18,North,-999,0.0,0.0,16,0.00,,,-99.99,WeatherLink 5.5,2013-05-18 20:15:00,
2013-05-18 16:20:00,72.5,22.2,30.18,SW,225,0.0,1.0,15,0.00,,,-99.99,WeatherLink 5.5,2013-05-18 20:20:00,
2013-05-18 16:25:00,72.0,21.8,30.18,SW,225,0.0,1.0,15,0.00,,,-99.99,WeatherLink 5.5,2013-05-18 20:25:00,
2013-05-18 16:30:00,72.0,21.8,30.18,SW,225,0.0,1.0,15,0.00,,,-99.99,WeatherLink 5.5,2013-05-18 20:30:00,
2013-05-18 16:35:00,72.0,20.1,30.18,SW,225,0.0,1.0,14,0.00,,,-99.99,WeatherLink 5.5,2013-05-18 20:35:00,
2013-05-18 16:40:00,72.0,23.3,30.18,SW,225,0.0,2.0,16,0.00,,,-99.99,WeatherLink 5.5,2013-05-18 20:40:00,
2013-05-18 16:45:00,72.0,23.3,30.18,SW,225,0.0,2.0,16,0.00,,,-99.99,WeatherLink 5.5,2013-05-18 20:45:00,
2013-05-18 16:50:00,72.2,24.9,30.18,ENE,67,0.0,1.0,17,0.00,,,-99.99,WeatherLink 5.5,2013-05-18 20:50:00,
2013-05-18 16:55:00,70.6,32.0,30.18,ENE,67,5.0,14.0,24,0.00,,,-99.99,WeatherLink 5.5,2013-05-18 20:55:00,
2013-05-18 17:00:00,70.6,32.0,30.18,ENE,67,5.0,14.0,24,0.00,,,-99.99,WeatherLink 5.5,2013-05-18 21:00:00,
2013-05-18 17:05:00,67.5,35.8,30.19,East,90,3.0,9.0,31,0.00,,,-99.99,WeatherLink 5.5,2013-05-18 21:05:00,
2013-05-18 17:10:00,66.6,35.0,30.19,ENE,67,4.0,10.0,31,0.00,,,-99.99,WeatherLink 5.5,2013-05-18 21:10:00,
2013-05-18 17:15:00,66.6,35.0,30.19,ENE,67,4.0,10.0,31,0.00,,,-99.99,WeatherLink 5.5,2013-05-18 21:15:00,
2013-05-18 17:20:00,65.7,35.8,30.18,ENE,67,4.0,10.0,33,0.00,,,-99.99,WeatherLink 5.5,2013-05-18 21:20:00,
2013-05-18 17:25:00,65.5,37.1,30.18,NE,45,2.0,9.0,35,0.00,,,-99.99,WeatherLink 5.5,2013-05-18 21:25:00,
2013-05-18 17:30:00,65.5,37.1,30.18,NE,45,2.0,9.0,35,0.00,,,-99.99,WeatherLink 5.5,2013-05-18 21:30:00,
2013-05-18 17:35:00,65.3,36.2,30.18,NE,45,0.0,4.0,34,0.00,,,-99.99,WeatherLink 5.5,2013-05-18 21:35:00,
2013-05-18 17:40:00,65.3,35.4,30.18,ENE,67,1.0,7.0,33,0.00,,,-99.99,WeatherLink 5.5,2013-05-18 21:40:00,
2013-05-18 17:45:00,65.3,35.4,30.18,ENE,67,1.0,7.0,33,0.00,,,-99.99,WeatherLink 5.5,2013-05-18 21:45:00,
2013-05-18 17:50:00,65.0,35.9,30.19,ENE,67,1.0,7.0,34,0.00,,,-99.99,WeatherLink 5.5,2013-05-18 21:50:00,
2013-05-18 17:55:00,64.7,35.7,30.19,NE,45,2.0,8.0,34,0.00,,,-99.99,WeatherLink 5.5,2013-05-18 21:55:00,
2013-05-18 18:00:00,64.7,35.7,30.19,NE,45,2.0,8.0,34,0.00,,,-99.99,WeatherLink 5.5,2013-05-18 22:00:00,
2013-05-18 18:05:00,64.5,36.2,30.19,ESE,112,1.0,4.0,35,0.00,,,-99.99,WeatherLink 5.5,2013-05-18 22:05:00,
2013-05-18 18:10:00,64.5,36.2,30.19,NE,45,1.0,6.0,35,0.00,,,-99.99,WeatherLink 5.5,2013-05-18 22:10:00,
2013-05-18 18:15:00,64.5,36.2,30.19,NE,45,1.0,6.0,35,0.00,,,-99.99,WeatherLink 5.5,2013-05-18 22:15:00,
2013-05-18 18:20:00,64.5,36.2,30.19,ENE,67,3.0,10.0,35,0.00,,,-99.99,WeatherLink 5.5,2013-05-18 22:20:00,
2013-05-18 18:25:00,64.5,36.2,30.19,ENE,67,3.0,10.0,35,0.00,,,-99.99,WeatherLink 5.5,2013-05-18 22:25:00,
2013-05-18 18:30:00,64.5,36.2,30.19,ENE,67,3.0,10.0,35,0.00,,,-99.99,WeatherLink 5.5,2013-05-18 22:30:00,
2013-05-18 18:35:00,64.4,36.1,30.19,ENE,67,1.0,8.0,35,0.00,,,-99.99,WeatherLink 5.5,2013-05-18 22:35:00,
2013-05-18 18:40:00,64.0,36.5,30.19,NE,45,1.0,10.0,36,0.00,,,-99.99,WeatherLink 5.5,2013-05-18 22:40:00,
2013-05-18 18:45:00,64.0,36.5,30.19,NE,45,1.0,10.0,36,0.00,,,-99.99,WeatherLink 5.5,2013-05-18 22:45:00,
2013-05-18 18:50:00,63.7,36.2,30.19,ENE,67,3.0,9.0,36,0.00,,,-99.99,WeatherLink 5.5,2013-05-18 22:50:00,
2013-05-18 18:55:00,63.7,36.2,30.19,ENE,67,1.0,8.0,36,0.00,,,-99.99,WeatherLink 5.5,2013-05-18 22:55:00,
2013-05-18 19:00:00,63.7,36.2,30.19,ENE,67,1.0,8.0,36,0.00,,,-99.99,WeatherLink 5.5,2013-05-18 23:00:00,
2013-05-18 19:05:00,63.6,36.8,30.20,NE,45,0.0,4.0,37,0.00,,,-99.99,WeatherLink 5.5,2013-05-18 23:05:00,
2013-05-18 19:10:00,63.6,36.8,30.20,NE,45,0.0,4.0,37,0.00,,,-99.99,WeatherLink 5.5,2013-05-18 23:10:00,
2013-05-18 19:15:00,63.6,36.8,30.20,NE,45,0.0,4.0,37,0.00,,,-99.99,WeatherLink 5.5,2013-05-18 23:15:00,
2013-05-18 19:20:00,63.4,36.7,30.20,North,-999,0.0,0.0,37,0.00,,,-99.99,WeatherLink 5.5,2013-05-18 23:20:00,
2013-05-18 19:25:00,63.2,37.2,30.20,NE,45,1.0,8.0,38,0.00,,,-99.99,WeatherLink 5.5,2013-05-18 23:25:00,
2013-05-18 19:30:00,63.2,37.2,30.20,NE,45,1.0,8.0,38,0.00,,,-99.99,WeatherLink 5.5,2013-05-18 23:30:00,
2013-05-18 19:35:00,63.1,37.7,30.20,NE,45,0.0,1.0,39,0.00,,,-99.99,WeatherLink 5.5,2013-05-18 23:35:00,
2013-05-18 19:40:00,62.9,37.5,30.20,NE,45,1.0,6.0,39,0.00,,,-99.99,WeatherLink 5.5,2013-05-18 23:40:00,
2013-05-18 19:45:00,62.9,37.5,30.20,NE,45,1.0,6.0,39,0.00,,,-99.99,WeatherLink 5.5,2013-05-18 23:45:00,
2013-05-18 19:50:00,62.4,37.7,30.20,NE,45,0.0,4.0,40,0.00,,,-99.99,WeatherLink 5.5,2013-05-18 23:50:00,
2013-05-18 19:55:00,62.3,38.3,30.20,NE,45,1.0,6.0,41,0.00,,,-99.99,WeatherLink 5.5,2013-05-18 23:55:00,
2013-05-18 20:00:00,62.3,38.3,30.20,NE,45,1.0,6.0,41,0.00,,,-99.99,WeatherLink 5.5,2013-05-19 00:00:00,
2013-05-18 20:05:00,61.8,38.4,30.20,North,-999,0.0,0.0,42,0.00,,,-99.99,WeatherLink 5.5,2013-05-19 00:05:00,
2013-05-18 20:10:00,61.7,39.0,30.20,NE,45,0.0,1.0,43,0.00,,,-99.99,WeatherLink 5.5,2013-05-19 00:10:00,
2013-05-18 20:15:00,61.7,39.0,30.20,NE,45,0.0,1.0,43,0.00,,,-99.99,WeatherLink 5.5,2013-05-19 00:15:00,
2013-05-18 20:20:00,61.2,39.1,30.20,North,-999,0.0,0.0,44,0.00,,,-99.99,WeatherLink 5.5,2013-05-19 00:20:00,
2013-05-18 20:25:00,61.2,39.7,30.20,North,-999,0.0,0.0,45,0.00,,,-99.99,WeatherLink 5.5,2013-05-19 00:25:00,
2013-05-18 20:30:00,61.2,39.7,30.20,North,-999,0.0,0.0,45,0.00,,,-99.99,WeatherLink 5.5,2013-05-19 00:30:00,
2013-05-18 20:35:00,60.9,40.0,30.20,North,-999,0.0,0.0,46,0.00,,,-99.99,WeatherLink 5.5,2013-05-19 00:35:00,
2013-05-18 20:40:00,60.7,39.8,30.20,North,-999,0.0,0.0,46,0.00,,,-99.99,WeatherLink 5.5,2013-05-19 00:40:00,
2013-05-18 20:45:00,60.7,39.8,30.20,North,-999,0.0,0.0,46,0.00,,,-99.99,WeatherLink 5.5,2013-05-19 00:45:00,
2013-05-18 20:50:00,60.2,40.4,30.21,North,-999,0.0,0.0,48,0.00,,,-99.99,WeatherLink 5.5,2013-05-19 00:50:00,
2013-05-18 20:55:00,59.9,40.7,30.21,North,-999,0.0,0.0,49,0.00,,,-99.99,WeatherLink 5.5,2013-05-19 00:55:00,
2013-05-18 21:00:00,59.9,40.7,30.21,North,-999,0.0,0.0,49,0.00,,,-99.99,WeatherLink 5.5,2013-05-19 01:00:00,
2013-05-18 21:05:00,58.9,40.8,30.22,North,-999,0.0,0.0,51,0.00,,,-99.99,WeatherLink 5.5,2013-05-19 01:05:00,
2013-05-18 21:10:00,58.6,41.0,30.22,North,-999,0.0,0.0,52,0.00,,,-99.99,WeatherLink 5.5,2013-05-19 01:10:00,
2013-05-18 21:15:00,58.6,41.0,30.22,North,-999,0.0,0.0,52,0.00,,,-99.99,WeatherLink 5.5,2013-05-19 01:15:00,
2013-05-18 21:20:00,58.0,41.4,30.22,North,-999,0.0,0.0,54,0.00,,,-99.99,WeatherLink 5.5,2013-05-19 01:20:00,
2013-05-18 21:25:00,57.7,41.6,30.22,North,-999,0.0,0.0,55,0.00,,,-99.99,WeatherLink 5.5,2013-05-19 01:25:00,
2013-05-18 21:30:00,57.7,41.6,30.22,North,-999,0.0,0.0,55,0.00,,,-99.99,WeatherLink 5.5,2013-05-19 01:30:00,
2013-05-18 21:35:00,57.2,41.6,30.23,North,-999,0.0,0.0,56,0.00,,,-99.99,WeatherLink 5.5,2013-05-19 01:35:00,
2013-05-18 21:40:00,56.9,41.4,30.23,North,-999,0.0,0.0,56,0.00,,,-99.99,WeatherLink 5.5,2013-05-19 01:40:00,
2013-05-18 21:45:00,56.9,41.4,30.23,North,-999,0.0,0.0,56,0.00,,,-99.99,WeatherLink 5.5,2013-05-19 01:45:00,
2013-05-18 21:50:00,56.4,41.8,30.23,North,-999,0.0,0.0,58,0.00,,,-99.99,WeatherLink 5.5,2013-05-19 01:50:00,
2013-05-18 21:55:00,56.2,41.6,30.23,North,-999,0.0,0.0,58,0.00,,,-99.99,WeatherLink 5.5,2013-05-19 01:55:00,
2013-05-18 22:00:00,56.2,41.6,30.23,North,-999,0.0,0.0,58,0.00,,,-99.99,WeatherLink 5.5,2013-05-19 02:00:00,
2013-05-18 22:05:00,55.9,41.8,30.23,North,-999,0.0,0.0,59,0.00,,,-99.99,WeatherLink 5.5,2013-05-19 02:05:00,
2013-05-18 22:10:00,55.6,41.5,30.23,North,-999,0.0,0.0,59,0.00,,,-99.99,WeatherLink 5.5,2013-05-19 02:10:00,
2013-05-18 22:15:00,55.6,41.5,30.23,North,-999,0.0,0.0,59,0.00,,,-99.99,WeatherLink 5.5,2013-05-19 02:15:00,
2013-05-18 22:20:00,55.0,42.2,30.23,North,-999,0.0,0.0,62,0.00,,,-99.99,WeatherLink 5.5,2013-05-19 02:20:00,
2013-05-18 22:25:00,54.8,42.0,30.23,North,-999,0.0,0.0,62,0.00,,,-99.99,WeatherLink 5.5,2013-05-19 02:25:00,
2013-05-18 22:30:00,54.8,42.0,30.23,North,-999,0.0,0.0,62,0.00,,,-99.99,WeatherLink 5.5,2013-05-19 02:30:00,
2013-05-18 22:35:00,54.2,42.3,30.23,North,-999,0.0,0.0,64,0.00,,,-99.99,WeatherLink 5.5,2013-05-19 02:35:00,
2013-05-18 22:40:00,53.9,42.0,30.23,North,-999,0.0,0.0,64,0.00,,,-99.99,WeatherLink 5.5,2013-05-19 02:40:00,
2013-05-18 22:45:00,53.9,42.0,30.23,North,-999,0.0,0.0,64,0.00,,,-99.99,WeatherLink 5.5,2013-05-19 02:45:00,
2013-05-18 22:50:00,53.6,42.5,30.23,North,-999,0.0,0.0,66,0.00,,,-99.99,WeatherLink 5.5,2013-05-19 02:50:00,
2013-05-18 22:55:00,53.3,42.2,30.23,North,-999,0.0,0.0,66,0.00,,,-99.99,WeatherLink 5.5,2013-05-19 02:55:00,
2013-05-18 23:00:00,53.3,42.2,30.23,North,-999,0.0,0.0,66,0.00,,,-99.99,WeatherLink 5.5,2013-05-19 03:00:00,
2013-05-18 23:05:00,52.9,42.2,30.23,North,-999,0.0,0.0,67,0.00,,,-99.99,WeatherLink 5.5,2013-05-19 03:05:00,
2013-05-18 23:10:00,52.8,42.5,30.23,North,-999,0.0,0.0,68,0.00,,,-99.99,WeatherLink 5.5,2013-05-19 03:10:00,
2013-05-18 23:15:00,52.8,42.5,30.23,North,-999,0.0,0.0,68,0.00,,,-99.99,WeatherLink 5.5,2013-05-19 03:15:00,
2013-05-18 23:20:00,52.2,42.3,30.23,North,-999,0.0,0.0,69,0.00,,,-99.99,WeatherLink 5.5,2013-05-19 03:20:00,
2013-05-18 23:25:00,52.0,42.5,30.23,North,-999,0.0,0.0,70,0.00,,,-99.99,WeatherLink 5.5,2013-05-19 03:25:00,
2013-05-18 23:30:00,52.0,42.5,30.23,North,-999,0.0,0.0,70,0.00,,,-99.99,WeatherLink 5.5,2013-05-19 03:30:00,
2013-05-18 23:35:00,51.7,42.2,30.24,North,-999,0.0,0.0,70,0.00,,,-99.99,WeatherLink 5.5,2013-05-19 03:35:00,
2013-05-18 23:40:00,51.4,42.3,30.24,North,-999,0.0,0.0,71,0.00,,,-99.99,WeatherLink 5.5,2013-05-19 03:40:00,
2013-05-18 23:45:00,51.4,42.3,30.24,North,-999,0.0,0.0,71,0.00,,,-99.99,WeatherLink 5.5,2013-05-19 03:45:00,
2013-05-18 23:50:00,51.0,41.9,30.24,North,-999,0.0,0.0,71,0.00,,,-99.99,WeatherLink 5.5,2013-05-19 03:50:00,
2013-05-18 23:55:00,50.8,42.1,30.24,North,-999,0.0,0.0,72,0.00,,,-99.99,WeatherLink 5.5,2013-05-19 03:55:00,